Location: Schommer Observatory
(40.5200°N, 74.4500°W)
Time: 12:53:40
(UTC-05:00)

Vanguard 2 Rocket - Visible Passes

Search period start: 12 December 2017 00:00
Search period end: 22 December 2017 00:00
Orbit: 555 x 3326 km, 32.9° (Epoch: 11 December)

Date Brightness Start Highest point End Pass type
(mag) Time Alt. Az. Time Alt. Az. Time Alt. Az.
12 Dec 10.3 02:43:27 19° S 02:43:27 19° S 02:47:11 10° SSE visible
12 Dec 9.4 18:30:47 10° SSW 18:41:50 43° SSE 18:49:27 30° ESE visible
12 Dec 9.3 20:42:56 10° WSW 20:55:15 61° SSW 20:55:15 61° SSW visible
12 Dec 10.6 22:57:43 10° W 23:01:03 20° W 23:01:03 20° W visible
13 Dec 10.7 01:47:24 13° SSE 01:47:24 13° SSE 01:48:28 10° SSE visible
13 Dec 10.5 03:53:12 12° SSW 03:53:12 12° SSW 03:55:14 10° SSW visible
13 Dec 9.6 17:32:44 10° SSW 17:41:52 32° SE 17:53:14 14° E visible
13 Dec 9.2 19:43:29 10° WSW 19:56:23 60° SSE 19:59:02 56° SE visible
13 Dec 10.0 21:57:15 10° W 22:04:50 38° WSW 22:04:50 38° WSW visible
14 Dec11.100:51:18SE00:51:18SE00:10:38Wvisible
14 Dec 10.5 02:57:07 14° S 02:57:07 14° S 02:59:06 10° S visible
14 Dec 9.2 18:44:32 10° SW 18:55:37 51° SSE 19:02:49 35° ESE visible
14 Dec 9.4 20:57:17 10° WSW 21:08:37 60° SW 21:08:37 60° SW visible
14 Dec 10.7 23:12:13 10° W 23:14:25 16° W 23:14:25 16° W visible
15 Dec 10.8 02:00:59 10° SSE 02:00:59 10° SSE 02:01:07 10° SSE visible
15 Dec 9.3 17:46:06 10° SSW 17:55:27 40° SSE 18:06:34 18° E visible
15 Dec 9.1 19:57:44 10° WSW 20:10:33 64° S 20:12:23 62° SE visible
15 Dec 10.1 22:11:45 10° W 22:18:10 33° WSW 22:18:10 33° WSW visible
16 Dec11.101:04:48SE01:04:48SE00:23:58Wvisible
16 Dec 9.5 16:48:16 10° SSW 16:55:51 29° SE 17:07:24 10° E visible
16 Dec 9.1 18:58:37 10° WSW 19:09:39 58° SSE 19:16:08 40° ESE visible
16 Dec 9.4 21:11:44 10° W 21:21:56 54° SW 21:21:56 54° SW visible
16 Dec 10.8 23:26:50 10° W 23:27:45 12° W 23:27:45 12° W visible
17 Dec 9.1 17:59:55 10° SW 18:09:17 49° SSE 18:19:54 21° E visible
17 Dec 9.1 20:12:08 10° WSW 20:24:50 66° S 20:25:42 65° SSE visible
17 Dec 10.2 22:26:18 10° W 22:31:30 28° W 22:31:30 28° W visible
18 Dec 9.1 17:01:41 10° SSW 17:09:30 37° SSE 17:22:16 10° E visible
18 Dec 9.0 19:12:55 10° WSW 19:23:51 63° S 19:29:29 45° ESE visible
18 Dec 9.6 21:26:15 10° W 21:35:17 47° WSW 21:35:17 47° WSW visible
19 Dec 8.9 18:14:03 10° WSW 18:23:22 56° SSE 18:33:16 25° E visible
19 Dec 9.1 20:26:37 10° W 20:39:04 64° S 20:39:04 64° S visible
19 Dec 10.4 22:40:59 10° W 22:44:53 22° W 22:44:53 22° W visible
20 Dec 8.9 17:15:34 10° SW 17:23:25 46° SSE 17:36:51 10° E visible
20 Dec 8.9 19:27:20 10° WSW 19:38:10 64° S 19:42:53 49° SE visible
20 Dec 9.7 21:40:51 10° W 21:48:42 40° WSW 21:48:42 40° WSW visible
21 Dec 8.8 18:28:23 10° WSW 18:37:37 60° S 18:46:44 28° ESE visible
21 Dec 9.2 20:41:10 10° W 20:52:33 58° SSW 20:52:33 58° SSW visible
21 Dec 10.5 22:55:54 10° W 22:58:21 17° W 22:58:21 17° W visible
